Find Beidou DW 21

NORAD ID: 41315 Int'l Des: 2016-006 Owner: CNSA Country: CN Constellation: BeiDou operational
MEOCIRCULAR

实时位置

正在加载3D地球...

关于 Beidou DW 21

正在加载描述...

即将过境

Passes for default location (London). Set your location on the main map for personalized predictions.

高度历史

Loading altitude history...

两行轨道根数

1 41315U 16006A 26104.13431802 .00000005 00000-0 00000+0 0 9996
2 41315 56.6523 65.7460 0005163 299.6680 60.2618 1.86231229 69402
Epoch: Apr 14, 2026 • Age: 49 hours

当前状态

高度 21534.3 km
速度 3.78 km/s
星下点 -54.51°S, 93.9°E
发射日期 Feb 1, 2016
运行时间 10.2 years
类型 navigation

技术详情

分类 Payload
质量 1014.00 kg
干质量 850.00 kg
总质量 1014.00 kg
长度 2.20 m
直径 1.70 m
跨度 10.00 m
形状 Box + 2 Pan
制造商 SECM
平台类型 BD-3M2
阶段状态 In Orbit
所有者/国家 CNSA/CN

Most Searched